When you browse on this site, cookies collect data to enhance your experience and personalize the content and advertising you see.
Visit our Privacy Policy to learn more. By continuing to use the site, you agree to this use of cookies and data.
  • In Hungary
  • List of Countries
  • For 7 days
  • Water Temperature
  • Satellite Maps
  • Weather Map
  • News
  • Weather Widgets
  • user-avatar
    Login

    Hourly Weather Zobwe

    Today, 21 January, Monday

    Time Temperature Precipitation Wind Pressure Humidity
    00:00 +25°C° 0.1 mm 3 mps 719 mmHg 86%
    01:00 +24°C° 0.1 mm 3 mps 719 mmHg 86%
    02:00 +24°C° 0.1 mm 3 mps 719 mmHg 87%
    03:00 +24°C° 0.2 mm 3 mps 719 mmHg 88%
    04:00 +24°C° 0.2 mm 3 mps 719 mmHg 89%
    05:00 +22°C° 0.2 mm 3 mps 719 mmHg 90%
    06:00 +24°C° 0.1 mm 3 mps 719 mmHg 88%
    07:00 +24°C° 0.1 mm 3 mps 719 mmHg 85%
    08:00 +25°C° 0.1 mm 3 mps 720 mmHg 82%
    09:00 +26°C° 0.1 mm 3 mps 720 mmHg 77%
    10:00 +27°C° 0.1 mm 3 mps 720 mmHg 72%
    11:00 +29°C° 0.1 mm 3 mps 720 mmHg 66%
    12:00 +29°C° 0 mm 3 mps 719 mmHg 64%
    13:00 +30°C° 0 mm 3 mps 718 mmHg 62%
    14:00 +31°C° 0 mm 3 mps 718 mmHg 59%
    15:00 +30°C° 0.1 mm 3 mps 717 mmHg 61%
    16:00 +30°C° 0.1 mm 3 mps 717 mmHg 64%
    17:00 +30°C° 0.1 mm 3 mps 716 mmHg 66%
    18:00 +28°C° 0 mm 3 mps 717 mmHg 69%
    19:00 +27°C° 0 mm 3 mps 717 mmHg 73%
    20:00 +26°C° 0 mm 3 mps 717 mmHg 76%
    21:00 +25°C° 0 mm 3 mps 718 mmHg 78%
    22:00 +25°C° 0 mm 3 mps 718 mmHg 80%
    23:00 +25°C° 0 mm 2 mps 718 mmHg 82%

    Tomorrow, 22 January, Tuesday

    Time Temperature Precipitation Wind Pressure Humidity
    00:00 +24°C° 0.1 mm 2 mps 718 mmHg 85%
    01:00 +24°C° 0.1 mm 1 mps 717 mmHg 87%
    02:00 +23°C° 0.1 mm 1 mps 717 mmHg 90%
    03:00 +23°C° 0 mm 1 mps 717 mmHg 90%
    04:00 +23°C° 0 mm 1 mps 717 mmHg 91%
    05:00 +23°C° 0 mm 1 mps 717 mmHg 91%
    06:00 +24°C° 0 mm 1 mps 717 mmHg 88%
    07:00 +25°C° 0 mm 1 mps 717 mmHg 85%
    08:00 +26°C° 0 mm 1 mps 718 mmHg 82%
    09:00 +27°C° 0 mm 2 mps 717 mmHg 77%
    10:00 +29°C° 0 mm 2 mps 717 mmHg 72%
    11:00 +30°C° 0 mm 2 mps 717 mmHg 67%
    12:00 +30°C° 0.2 mm 2 mps 716 mmHg 66%
    13:00 +31°C° 0.2 mm 2 mps 716 mmHg 66%
    14:00 +31°C° 0.2 mm 1 mps 715 mmHg 65%
    15:00 +30°C° 0.7 mm 1 mps 715 mmHg 70%
    16:00 +29°C° 0.7 mm 1 mps 715 mmHg 75%
    17:00 +28°C° 0.7 mm 1 mps 714 mmHg 80%
    18:00 +27°C° 0.8 mm 1 mps 715 mmHg 83%
    19:00 +26°C° 0.8 mm 2 mps 716 mmHg 86%
    20:00 +25°C° 0.8 mm 2 mps 716 mmHg 89%
    21:00 +25°C° 0.6 mm 2 mps 717 mmHg 90%
    22:00 +24°C° 0.6 mm 1 mps 717 mmHg 91%
    23:00 +24°C° 0.6 mm 1 mps 717 mmHg 92%

    Day after tomorrow, 23 January, Wednesday

    Time Temperature Precipitation Wind Pressure Humidity
    00:00 +24°C° 0.5 mm 1 mps 717 mmHg 93%
    01:00 +24°C° 0.5 mm 1 mps 716 mmHg 93%
    02:00 +24°C° 0.5 mm 1 mps 715 mmHg 94%
    03:00 +24°C° 0.2 mm 1 mps 715 mmHg 94%
    04:00 +24°C° 0.2 mm 1 mps 716 mmHg 94%
    05:00 +24°C° 0.2 mm 1 mps 716 mmHg 94%
    06:00 +24°C° 0.2 mm 1 mps 716 mmHg 93%
    07:00 +25°C° 0.2 mm 1 mps 716 mmHg 91%
    08:00 +25°C° 0.2 mm 1 mps 717 mmHg 90%
    09:00 +27°C° 0.5 mm 2 mps 717 mmHg 84%
    10:00 +28°C° 0.5 mm 2 mps 717 mmHg 79%
    11:00 +29°C° 0.5 mm 2 mps 717 mmHg 73%
    12:00 +29°C° 0.3 mm 2 mps 716 mmHg 71%
    13:00 +30°C° 0.3 mm 2 mps 715 mmHg 69%
    14:00 +30°C° 0.3 mm 2 mps 715 mmHg 66%
    15:00 +29°C° 0.4 mm 2 mps 715 mmHg 71%
    16:00 +29°C° 0.4 mm 1 mps 715 mmHg 75%
    17:00 +28°C° 0.4 mm 1 mps 715 mmHg 80%
    18:00 +27°C° 0 mm 1 mps 715 mmHg 83%
    19:00 +26°C° 0 mm 1 mps 716 mmHg 86%
    20:00 +25°C° 0 mm 1 mps 717 mmHg 89%
    21:00 +25°C° 0.2 mm 1 mps 717 mmHg 89%
    22:00 +23°C° 0.2 mm 0 mps 717 mmHg 88%
    23:00 +23°C° 0.2 mm 0 mps 717 mmHg 87%

    24 January, Thursday

    Time Temperature Precipitation Wind Pressure Humidity
    00:00 +23°C° 0.2 mm 0 mps 717 mmHg 88%
    01:00 +23°C° 0.2 mm 0 mps 716 mmHg 90%
    02:00 +22°C° 0.2 mm 0 mps 716 mmHg 91%
    03:00 +24°C° 0.3 mm 1 mps 716 mmHg 90%
    04:00 +24°C° 0.3 mm 1 mps 716 mmHg 90%
    05:00 +24°C° 0.3 mm 2 mps 716 mmHg 90%
    06:00 +25°C° 0.8 mm 2 mps 717 mmHg 88%
    07:00 +26°C° 0.8 mm 3 mps 718 mmHg 86%
    08:00 +27°C° 0.8 mm 4 mps 718 mmHg 84%
    09:00 +27°C° 1 mm 5 mps 718 mmHg 84%
    10:00 +27°C° 1 mm 5 mps 718 mmHg 84%
    11:00 +27°C° 1 mm 6 mps 718 mmHg 84%
    12:00 +28°C° 0.9 mm 5 mps 717 mmHg 84%
    13:00 +28°C° 0.9 mm 5 mps 716 mmHg 83%
    14:00 +28°C° 0.9 mm 5 mps 716 mmHg 83%
    15:00 +28°C° 0.8 mm 4 mps 716 mmHg 84%
    16:00 +27°C° 0.8 mm 4 mps 716 mmHg 85%
    17:00 +27°C° 0.8 mm 3 mps 716 mmHg 86%
    18:00 +26°C° 0.4 mm 3 mps 717 mmHg 87%
    19:00 +26°C° 0.4 mm 2 mps 717 mmHg 88%
    20:00 +25°C° 0.4 mm 2 mps 718 mmHg 89%
    21:00 +25°C° 0.4 mm 2 mps 718 mmHg 89%
    22:00 +25°C° 0.4 mm 1 mps 718 mmHg 89%
    23:00 +25°C° 0.4 mm 1 mps 719 mmHg 89%

    25 January, Friday

    Time Temperature Precipitation Wind Pressure Humidity
    00:00 +25°C° 0.3 mm 1 mps 718 mmHg 90%
    01:00 +25°C° 0.3 mm 1 mps 718 mmHg 91%
    02:00 +24°C° 0.3 mm 1 mps 717 mmHg 93%
    03:00 +24°C° 0.4 mm 1 mps 718 mmHg 93%
    04:00 +24°C° 0.4 mm 1 mps 718 mmHg 94%
    05:00 +24°C° 0.4 mm 1 mps 718 mmHg 94%
    06:00 +24°C° 0.4 mm 1 mps 719 mmHg 94%
    07:00 +25°C° 0.4 mm 1 mps 719 mmHg 93%
    08:00 +25°C° 0.4 mm 1 mps 720 mmHg 92%
    09:00 +26°C° 0.1 mm 1 mps 719 mmHg 88%
    10:00 +27°C° 0.1 mm 1 mps 719 mmHg 84%
    11:00 +27°C° 0.1 mm 2 mps 719 mmHg 80%
    12:00 +28°C° 0.1 mm 2 mps 718 mmHg 76%
    13:00 +29°C° 0.1 mm 2 mps 718 mmHg 72%
    14:00 +29°C° 0.1 mm 2 mps 717 mmHg 68%
    15:00 +29°C° 0.2 mm 1 mps 717 mmHg 71%
    16:00 +28°C° 0.2 mm 1 mps 717 mmHg 73%
    17:00 +28°C° 0.2 mm 1 mps 717 mmHg 76%
    18:00 +27°C° 0.1 mm 1 mps 718 mmHg 79%
    19:00 +26°C° 0.1 mm 1 mps 718 mmHg 82%
    20:00 +25°C° 0.1 mm 1 mps 719 mmHg 85%
    21:00 +25°C° 0 mm 1 mps 719 mmHg 87%
    22:00 +25°C° 0 mm 1 mps 719 mmHg 88%
    23:00 +25°C° 0 mm 1 mps 719 mmHg 90%

    26 January, Saturday

    Time Temperature Precipitation Wind Pressure Humidity
    00:00 +24°C° 0 mm 1 mps 719 mmHg 91%
    01:00 +24°C° 0 mm 1 mps 718 mmHg 91%
    02:00 +24°C° 0 mm 1 mps 718 mmHg 92%
    03:00 +24°C° 0 mm 1 mps 718 mmHg 92%
    04:00 +24°C° 0 mm 1 mps 719 mmHg 92%
    05:00 +24°C° 0 mm 1 mps 719 mmHg 92%
    06:00 +24°C° 0.1 mm 1 mps 719 mmHg 89%
    07:00 +25°C° 0.1 mm 1 mps 720 mmHg 87%
    08:00 +26°C° 0.1 mm 2 mps 720 mmHg 84%
    09:00 +27°C° 0.1 mm 1 mps 720 mmHg 80%
    10:00 +28°C° 0.1 mm 1 mps 720 mmHg 75%
    11:00 +29°C° 0.1 mm 1 mps 719 mmHg 71%
    12:00 +29°C° 0.1 mm 1 mps 719 mmHg 69%
    13:00 +30°C° 0.1 mm 1 mps 718 mmHg 68%
    14:00 +30°C° 0.1 mm 1 mps 718 mmHg 66%
    15:00 +29°C° 0.3 mm 1 mps 718 mmHg 70%
    16:00 +29°C° 0.3 mm 2 mps 718 mmHg 74%
    17:00 +28°C° 0.3 mm 2 mps 717 mmHg 78%
    18:00 +27°C° 0.5 mm 2 mps 718 mmHg 81%
    19:00 +26°C° 0.5 mm 2 mps 719 mmHg 85%
    20:00 +25°C° 0.5 mm 1 mps 719 mmHg 89%
    21:00 +25°C° 0.4 mm 1 mps 719 mmHg 89%
    22:00 +25°C° 0.4 mm 1 mps 720 mmHg 89%
    23:00 +25°C° 0.4 mm 1 mps 720 mmHg 90%
    Show more